Time,TemperatureF,DewpointF,PressureIn,WindDirection,WindDirectionDegrees,WindSpeedMPH,WindSpeedGustMPH,Humidity,HourlyPrecipIn,Conditions,Clouds,dailyrainin,SoftwareType,DateUTC
2013-02-19 00:10:00,27.0,27.0,-100.00,North,-999,-999.0,-999.0,99,-99.99,,,-99.99,,2013-02-19 08:10:00,
2013-02-19 00:40:00,27.0,27.0,-100.00,North,-999,-999.0,-999.0,99,-99.99,,,-99.99,,2013-02-19 08:40:00,
2013-02-19 01:10:00,27.0,27.0,-100.00,North,-999,-999.0,-999.0,99,-99.99,,,-99.99,,2013-02-19 09:10:00,
2013-02-19 01:40:00,27.0,27.0,-100.00,North,-999,-999.0,-999.0,101,-99.99,,,-99.99,,2013-02-19 09:40:00,
2013-02-19 02:10:00,27.0,27.0,-100.00,North,-999,-999.0,-999.0,101,-99.99,,,-99.99,,2013-02-19 10:10:00,
2013-02-19 02:40:00,27.0,27.0,-100.00,North,-999,-999.0,-999.0,101,-99.99,,,-99.99,,2013-02-19 10:40:00,
2013-02-19 04:10:00,27.0,27.0,-100.00,North,-999,-999.0,-999.0,99,-99.99,,,-99.99,,2013-02-19 12:10:00,
2013-02-19 04:40:00,27.0,26.0,-100.00,North,-999,-999.0,-999.0,93,-99.99,,,-99.99,,2013-02-19 12:40:00,
2013-02-19 05:10:00,27.0,25.0,-100.00,North,-999,-999.0,-999.0,91,-99.99,,,-99.99,,2013-02-19 13:10:00,
2013-02-19 05:40:00,27.0,24.0,-100.00,North,-999,-999.0,-999.0,91,-99.99,,,-99.99,,2013-02-19 13:40:00,
2013-02-19 06:10:00,26.0,24.0,-100.00,North,-999,-999.0,-999.0,94,-99.99,,,-99.99,,2013-02-19 14:10:00,
2013-02-19 06:40:00,25.0,24.0,-100.00,North,-999,-999.0,-999.0,96,-99.99,,,-99.99,,2013-02-19 14:40:00,
2013-02-19 07:10:00,25.0,24.0,-100.00,North,-999,-999.0,-999.0,97,-99.99,,,-99.99,,2013-02-19 15:10:00,
2013-02-19 07:40:00,27.0,25.0,-100.00,North,-999,-999.0,-999.0,91,-99.99,,,-99.99,,2013-02-19 15:40:00,
2013-02-19 08:10:00,32.0,26.0,-100.00,North,-999,-999.0,-999.0,79,-99.99,,,-99.99,,2013-02-19 16:10:00,
2013-02-19 08:40:00,32.0,25.0,-100.00,North,-999,-999.0,-999.0,73,-99.99,,,-99.99,,2013-02-19 16:40:00,
2013-02-19 09:11:00,32.0,25.0,-100.00,North,-999,-999.0,-999.0,75,-99.99,,,-99.99,,2013-02-19 17:11:00,
2013-02-19 10:40:00,34.0,24.0,-100.00,North,-999,-999.0,-999.0,66,-99.99,,,-99.99,,2013-02-19 18:40:00,
2013-02-19 11:10:00,34.0,23.0,-100.00,North,-999,-999.0,-999.0,66,-99.99,,,-99.99,,2013-02-19 19:10:00,
2013-02-19 11:40:00,34.0,24.0,-100.00,North,-999,-999.0,-999.0,67,-99.99,,,-99.99,,2013-02-19 19:40:00,
2013-02-19 12:10:00,35.0,25.0,-100.00,North,-999,-999.0,-999.0,66,-99.99,,,-99.99,,2013-02-19 20:10:00,
2013-02-19 12:40:00,36.0,25.0,-100.00,North,-999,-999.0,-999.0,62,-99.99,,,-99.99,,2013-02-19 20:40:00,
2013-02-19 13:11:00,37.0,25.0,-100.00,North,-999,-999.0,-999.0,61,-99.99,,,-99.99,,2013-02-19 21:11:00,
2013-02-19 13:41:00,38.0,25.0,-100.00,North,-999,-999.0,-999.0,59,-99.99,,,-99.99,,2013-02-19 21:41:00,
2013-02-19 14:40:00,35.0,28.0,-100.00,North,-999,-999.0,-999.0,75,-99.99,,,-99.99,,2013-02-19 22:40:00,
2013-02-19 15:11:00,36.0,27.0,-100.00,North,-999,-999.0,-999.0,71,-99.99,,,-99.99,,2013-02-19 23:11:00,
2013-02-19 15:40:00,35.0,29.0,-100.00,North,-999,-999.0,-999.0,79,-99.99,,,-99.99,,2013-02-19 23:40:00,
2013-02-19 15:52:00,35.0,28.0,-100.00,North,-999,-999.0,-999.0,75,-99.99,,,-99.99,,2013-02-19 23:52:00,
2013-02-19 16:10:00,33.0,28.0,-100.00,North,-999,-999.0,-999.0,81,-99.99,,,-99.99,,2013-02-20 00:10:00,
2013-02-19 16:40:00,32.0,28.0,-100.00,North,-999,-999.0,-999.0,82,-99.99,,,-99.99,,2013-02-20 00:40:00,
2013-02-19 17:10:00,32.0,28.0,-100.00,North,-999,-999.0,-999.0,88,-99.99,,,-99.99,,2013-02-20 01:10:00,
2013-02-19 17:40:00,31.0,29.0,-100.00,North,-999,-999.0,-999.0,90,-99.99,,,-99.99,,2013-02-20 01:40:00,
2013-02-19 18:10:00,30.0,28.0,-100.00,North,-999,-999.0,-999.0,94,-99.99,,,-99.99,,2013-02-20 02:10:00,
2013-02-19 18:41:00,29.0,28.0,-100.00,North,-999,-999.0,-999.0,96,-99.99,,,-99.99,,2013-02-20 02:41:00,
2013-02-19 19:40:00,28.0,27.0,-100.00,North,-999,-999.0,-999.0,98,-99.99,,,-99.99,,2013-02-20 03:40:00,
2013-02-19 20:10:00,27.0,27.0,-100.00,North,-999,-999.0,-999.0,99,-99.99,,,-99.99,,2013-02-20 04:10:00,
2013-02-19 20:40:00,27.0,27.0,-100.00,North,-999,-999.0,-999.0,99,-99.99,,,-99.99,,2013-02-20 04:40:00,
2013-02-19 20:51:00,27.0,27.0,-100.00,North,-999,-999.0,-999.0,98,-99.99,,,-99.99,,2013-02-20 04:51:00,
2013-02-19 21:10:00,26.0,26.0,-100.00,North,-999,-999.0,-999.0,99,-99.99,,,-99.99,,2013-02-20 05:10:00,
2013-02-19 21:40:00,26.0,26.0,-100.00,North,-999,-999.0,-999.0,101,-99.99,,,-99.99,,2013-02-20 05:40:00,
2013-02-19 22:10:00,27.0,27.0,-100.00,North,-999,-999.0,-999.0,101,-99.99,,,-99.99,,2013-02-20 06:10:00,
2013-02-19 22:40:00,28.0,28.0,-100.00,North,-999,-999.0,-999.0,101,-99.99,,,-99.99,,2013-02-20 06:40:00,
2013-02-19 23:11:00,29.0,29.0,-100.00,North,-999,-999.0,-999.0,97,-99.99,,,-99.99,,2013-02-20 07:11:00,